Regional Weather Roundup
Issued by NWS

Home | Current Version | Previous Version | Text Only | Print | Product List | Glossary Off
Versions: 1 2 3 4 5 6 7 8 9 10 11 12 13 14 15 16 17 18 19 20 21 22 23 24 25 26 27 28 29 30 31 32 33 34 35 36 37 38 39 40 41 42 43 44 45 46 47 48 49 50

000
ASUS43 KLMK 301902
RWRKY
KENTUCKY REGIONAL WEATHER ROUNDUP
NATIONAL WEATHER SERVICE LOUISVILLE KY
300 PM EDT THU JUL 30 2015

NOTE "FAIR" INDICATES FEW OR NO CLOUDS BELOW 12,000 FEET
WITH NO SIGNIFICANT WEATHER AND/OR OBSTRUCTIONS TO VISIBILITY.

KYZ001>023-026-027-061>063-070>075-302000-
WESTERN AND SOUTH CENTRAL KENTUCKY

CITY           SKY/WX    TMP DP  RH WIND       PRES   REMARKS
PADUCAH        SUNNY     87  61  41 N8        30.13F
HENDERSON      SUNNY     84  55  37 N8        30.11F
OWENSBORO      SUNNY     86  60  41 N7        30.12F
HOPKINSVILLE   SUNNY     84  62  47 N8        30.12S
BOWLING GREEN  SUNNY     87  60  40 N10       30.11F
GLASGOW        NOT AVBL
$$

KYZ024-025-028>034-038-045-046-053-302000-
NORTH CENTRAL KENTUCKY

CITY           SKY/WX    TMP DP  RH WIND       PRES   REMARKS
LOUISVILLE/SDF MOSUNNY   87  57  35 MISG      30.08F
LOUISVILLE/LOU SUNNY     87  55  33 MISG      30.10S
FORT KNOX      SUNNY     83  60  44 W8        30.10S
$$

KYZ035>037-039>044-047>052-055>060-089>105-302000-
NORTHEAST KENTUCKY

CITY           SKY/WX    TMP DP  RH WIND       PRES   REMARKS
LEXINGTON      SUNNY     84  60  44 NW6       30.09F
COVINGTON      MOSUNNY   84  58  40 NW5       30.08S
FRANKFORT      SUNNY     84  58  40 NW8       30.08F
$$

KYZ054-064>069-076>088-106>120-302000-
SOUTHEAST KENTUCKY

CITY           SKY/WX    TMP DP  RH WIND       PRES   REMARKS
JACKSON        MOSUNNY   82  65  56 CALM      30.08F
LONDON         MOSUNNY   85  63  47 N8        30.08F
SOMERSET       NOT AVBL
MIDDLESBORO    NOT AVBL
MONTICELLO     CLEAR     87  69  54 NW6       30.11F HX  91
$$



USA.gov is the U.S. government's official web portal to all federal, state and local government web resources and services.